Tracking 30703 objects as of 13-Jun-2025
HD Live streaming from Space Station
objects crossing your sky now

STARLINK-11313

Track STARLINK-11313 now!
10-day predictions
STARLINK-11313 is classified as:


NORAD ID: 61255
Int'l Code: 2024-175N
Perigee: 366.3 km
Apogee: 367.5 km
Inclination: 53.2 °
Period: 91.7 minutes
Semi major axis: 6737 km
RCS: Unknown
Launch date: September 25, 2024
Source: United States (US)
Launch site: AIR FORCE WESTERN TEST RANGE (AFWTR)
Your satellite tracking list
Your tracking list is empty




NASA's NSSDC Master Catalog

Two Line Element Set (TLE):
1 61255U 24175N   25163.40230371  .00000589  00000-0  97178-5 0  9994
2 61255  53.1599 308.7667 0000879  40.1622 319.9461 15.69707720 41911
Source of the keplerian elements: AFSPC